Weather History for Jackson, MI

Change the Weather History Date:

Tuesday, October 15, 2013

  Actual Average Record
Temperature  
Mean Temperature 51 °F 50 °F  
Max Temperature 62 °F 61 °F 82 °F (1956)
Min Temperature 40 °F 40 °F 27 °F (2006)
Degree Days  
Heating Degree Days 14 15  
Month to date heating degree days 104 188  
Since 1 July heating degree days 312 376  
Cooling Degree Days 0 0  
Month to date cooling degree days 12 3  
Year to date cooling degree days 616 589  
Growing Degree Days 2 (Base 50)    
Moisture  
Dew Point 52 °F    
Average Humidity 90    
Maximum Humidity 100    
Minimum Humidity 80    
Precipitation  
Precipitation 0.12 in 0.08 in 1.44 in (1967)
Month to date precipitation 0.56 1.39  
Year to date precipitation 27.66 25.79  
Sea Level Pressure  
Sea Level Pressure 30.00 in    
Wind  
Wind Speed 8 mph (SSE)    
Max Wind Speed 15 mph    
Max Gust Speed 22 mph    
Visibility 9 miles    
Events Rain    
T = Trace of Precipitation, MM = Missing Value Source: NWS Daily Summary

Daily Weather History Graph

Daily Weather History Graph

Search for Another Location

Airport:

Trip Planner

Search our weather history database for the weather conditions in past years. The results will help you decide how hot, cold, wet, or windy it might be!

Date:

Astronomy

Oct. 15, 2013 Rise Set
Actual Time 7:50 AM EDT 6:55 PM EDT
Civil Twilight 7:22 AM EDT 7:23 PM EDT
Nautical Twilight 6:50 AM EDT 7:56 PM EDT
Astronomical Twilight 6:17 AM EDT 8:28 PM EDT
Moon 5:03 PM EDT (10/15) 4:08 AM EDT (10/15)
Length of Visible Light 12h 01m
Length of Day
11h 04m
Waxing Gibbous, 87% of the Moon is Illuminated
Oct 15
Waxing Gibbous
Oct 18
Full
Oct 26
Last Quarter
Nov 3
New
Nov 10
First Quarter

Hourly Weather History & Observations

Time (EDT) Temp. Windchill Dew Point Humidity Pressure Visibility Wind Dir Wind Speed Gust Speed Precip Events Conditions
12:56 AM 45.0 °F 43.5 °F 42.1 °F 90% 30.25 in 10.0 mi East 3.5 mph - N/A   Clear
1:56 AM 45.0 °F 41.8 °F 42.1 °F 90% 30.23 in 10.0 mi ESE 5.8 mph - N/A   Clear
2:56 AM 42.1 °F - 39.9 °F 92% 30.21 in 10.0 mi Calm Calm - N/A   Clear
3:56 AM 41.0 °F - 39.9 °F 96% 30.20 in 10.0 mi Calm Calm - N/A   Clear
4:56 AM 42.1 °F 40.2 °F 39.9 °F 92% 30.18 in 10.0 mi SE 3.5 mph - N/A   Clear
5:56 AM 43.0 °F 38.8 °F 42.1 °F 97% 30.16 in 10.0 mi SE 6.9 mph - N/A   Clear
6:56 AM 44.1 °F 40.8 °F 42.1 °F 93% 30.14 in 10.0 mi ESE 5.8 mph - N/A   Clear
7:56 AM 44.1 °F 40.8 °F 42.1 °F 93% 30.14 in 10.0 mi SE 5.8 mph - N/A   Clear
8:56 AM 46.9 °F - 44.1 °F 90% 30.13 in 10.0 mi SE 5.8 mph - N/A   Scattered Clouds
9:56 AM 50.0 °F - 46.0 °F 86% 30.12 in 10.0 mi SE 5.8 mph - N/A   Clear
10:25 AM 51.8 °F - 46.4 °F 82% 30.09 in 10.0 mi SE 9.2 mph - N/A   Partly Cloudy
10:42 AM 53.6 °F - 48.2 °F 82% 30.08 in 10.0 mi SE 9.2 mph - N/A   Mostly Cloudy
10:56 AM 53.1 °F - 48.9 °F 86% 30.09 in 10.0 mi SE 9.2 mph - N/A   Scattered Clouds
11:33 AM 57.2 °F - 51.8 °F 82% 30.06 in 10.0 mi SSE 9.2 mph - N/A   Mostly Cloudy
11:56 AM 57.9 °F - 52.0 °F 81% 30.07 in 10.0 mi SSE 10.4 mph - N/A   Overcast
12:56 PM 59.0 °F - 54.0 °F 83% 30.05 in 10.0 mi SSE 9.2 mph - N/A   Overcast
1:31 PM 60.8 °F - 55.4 °F 82% 30.01 in 10.0 mi SE 11.5 mph - N/A   Scattered Clouds
1:56 PM 61.0 °F - 55.0 °F 81% 30.00 in 10.0 mi SE 9.2 mph - N/A   Partly Cloudy
2:56 PM 60.1 °F - 55.0 °F 83% 29.98 in 10.0 mi SSE 12.7 mph - N/A   Scattered Clouds
3:56 PM 61.0 °F - 55.0 °F 81% 29.94 in 10.0 mi SE 10.4 mph - N/A   Overcast
4:56 PM 61.0 °F - 55.0 °F 81% 29.92 in 10.0 mi SSE 10.4 mph - N/A   Mostly Cloudy
5:32 PM 60.8 °F - 55.4 °F 82% 29.90 in 9.0 mi SSE 11.5 mph - N/A   Overcast
5:56 PM 60.1 °F - 55.9 °F 86% 29.90 in 8.0 mi SSE 13.8 mph 21.9 mph N/A   Overcast
6:56 PM 59.0 °F - 57.0 °F 93% 29.89 in 6.0 mi SSE 11.5 mph - 0.00 in   Overcast
7:08 PM 59.0 °F - 57.2 °F 94% 29.88 in 7.0 mi SSE 10.4 mph - N/A   Overcast
7:24 PM 59.0 °F - 57.2 °F 94% 29.88 in 7.0 mi SSE 10.4 mph - N/A   Overcast
7:56 PM 60.1 °F - 57.0 °F 90% 29.88 in 7.0 mi South 9.2 mph 18.4 mph N/A   Overcast
8:56 PM 61.0 °F - 57.9 °F 90% 29.86 in 7.0 mi South 11.5 mph 17.3 mph N/A   Overcast
9:19 PM 60.8 °F - 59.0 °F 94% 29.85 in 4.0 mi South 8.1 mph - 0.01 in Rain Light Rain
9:40 PM 60.8 °F - 59.0 °F 94% 29.84 in 3.0 mi South 9.2 mph - 0.07 in Rain Light Rain
9:56 PM 61.0 °F - 59.0 °F 93% 29.84 in 4.0 mi South 10.4 mph - 0.09 in Rain Light Rain
10:39 PM 62.6 °F - 60.8 °F 94% 29.84 in 8.0 mi SSW 12.7 mph - 0.03 in   Overcast
10:46 PM 62.6 °F - 60.8 °F 94% 29.84 in 9.0 mi SW 11.5 mph - 0.03 in   Overcast
10:54 PM 62.6 °F - 60.8 °F 94% 29.85 in 10.0 mi SW 12.7 mph 20.7 mph 0.03 in   Overcast
10:56 PM 62.1 °F - 60.1 °F 93% 29.85 in 10.0 mi SW 12.7 mph 20.7 mph 0.03 in   Overcast
11:17 PM 62.6 °F - 60.8 °F 94% 29.85 in 10.0 mi SW 10.4 mph - N/A   Overcast
11:56 PM 62.1 °F - 60.1 °F 93% 29.84 in 10.0 mi SW 8.1 mph - N/A   Mostly Cloudy